TimeCST,TemperatureF,Dew PointF,Humidity,Sea Level PressureIn,VisibilityMPH,Wind Direction,Wind SpeedMPH,Gust SpeedMPH,PrecipitationIn,Events,Conditions,WindDirDegrees,DateUTC
12:53 AM,48.9,32.0,52,29.90,10.0,North,10.4,-,N/A,,Clear,360,2012-12-02 06:53:00
1:53 AM,46.0,30.9,56,29.92,10.0,West,10.4,-,N/A,,Clear,260,2012-12-02 07:53:00
2:53 AM,46.9,30.9,54,29.93,10.0,West,9.2,-,N/A,,Clear,280,2012-12-02 08:53:00
3:53 AM,46.0,32.0,58,29.94,10.0,WNW,6.9,-,N/A,,Clear,300,2012-12-02 09:53:00
4:53 AM,43.0,30.0,60,29.95,10.0,NW,5.8,-,N/A,,Clear,310,2012-12-02 10:53:00
5:53 AM,42.1,28.9,60,29.95,10.0,West,4.6,-,N/A,,Clear,280,2012-12-02 11:53:00
6:53 AM,39.9,28.9,65,29.99,10.0,WSW,4.6,-,N/A,,Clear,250,2012-12-02 12:53:00
7:53 AM,39.0,28.9,67,30.01,10.0,WNW,4.6,-,N/A,,Clear,290,2012-12-02 13:53:00
8:53 AM,46.0,30.9,56,30.02,10.0,Calm,Calm,-,N/A,,Clear,0,2012-12-02 14:53:00
9:53 AM,53.1,34.0,48,30.02,10.0,Calm,Calm,-,N/A,,Clear,0,2012-12-02 15:53:00
10:53 AM,59.0,34.0,39,30.02,10.0,SSW,4.6,-,N/A,,Clear,210,2012-12-02 16:53:00
11:53 AM,64.0,36.0,35,30.00,10.0,SSW,8.1,-,N/A,,Clear,210,2012-12-02 17:53:00
12:53 PM,73.0,41.0,31,29.95,10.0,SW,10.4,-,N/A,,Clear,230,2012-12-02 18:53:00
1:53 PM,75.9,52.0,43,29.92,10.0,SW,11.5,-,N/A,,Clear,220,2012-12-02 19:53:00
3:53 PM,80.1,54.0,40,29.87,10.0,South,17.3,-,N/A,,Clear,190,2012-12-02 21:53:00
4:53 PM,77.0,53.1,43,29.86,10.0,South,13.8,-,N/A,,Clear,190,2012-12-02 22:53:00
5:53 PM,70.0,52.0,53,29.86,10.0,South,9.2,-,N/A,,Clear,190,2012-12-02 23:53:00
6:53 PM,66.0,52.0,60,29.87,10.0,SSE,9.2,-,N/A,,Clear,150,2012-12-03 00:53:00
7:53 PM,66.9,54.0,63,29.86,10.0,SSE,12.7,-,N/A,,Clear,160,2012-12-03 01:53:00
8:53 PM,64.0,53.1,67,29.85,10.0,SSE,12.7,-,N/A,,Clear,160,2012-12-03 02:53:00
9:53 PM,66.0,54.0,65,29.84,10.0,South,15.0,-,N/A,,Clear,170,2012-12-03 03:53:00
10:53 PM,66.0,54.0,65,29.85,10.0,South,19.6,-,N/A,,Clear,180,2012-12-03 04:53:00
11:53 PM,63.0,53.1,70,29.85,10.0,South,13.8,-,N/A,,Clear,170,2012-12-03 05:53:00